Regional Weather Roundup
Issued by NWS Upton, NY

Current Version | Previous Version | Graphics & Text | Print | Product List | Glossary Off
Versions: 1 2 3 4 5 6 7 8 9 10 11 12 13 14 15 16 17 18 19 20 21 22 23 24 25 26 27 28 29 30 31 32 33 34 35 36 37 38 39 40 41 42 43 44 45 46 47 48 49 50

000
ASUS41 KOKX 312305
RWROKX

REGIONAL WEATHER ROUNDUP
NATIONAL WEATHER SERVICE NEW YORK NY
600 PM EST SAT JAN 31 2015

NOTE: "FAIR" INDICATES FEW OR NO CLOUDS BELOW 12,000 FEET WITH NO
SIGNIFICANT WEATHER AND/OR OBSTRUCTIONS TO VISIBILITY.

NYZ071-072-176-178-NJZ106-104-010000-
NEW YORK CITY METRO AREA


CITY           SKY/WX    TMP DP  RH WIND       PRES   REMARKS
CENTRAL PARK   CLEAR     24   1  36 VRB7      30.15R WCI  16
LAGUARDIA APRT CLEAR     24   3  40 NW20G29   30.14R WCI  10
KENNEDY INTL   PTCLDY    25   0  33 NW22      30.15R WCI  10
NEWARK/LIBERTY PTCLDY    23   3  42 NW9G22    30.16R WCI  13
BRNX BOT. GARD   N/A    N/A N/A N/A NW6       30.14R
TETERBORO      CLEAR     23   1  38 NW12      30.14R WCI  12
$$

NYZ177-179-078>081-010000-
LONG ISLAND NEW YORK

CITY           SKY/WX    TMP DP  RH WIND       PRES   REMARKS
FARMINGDALE    CLEAR     23   1  38 NW16G25   30.12R WCI  10
ISLIP          CLEAR     23  -2  33 NW13      30.08R WCI  11
SHIRLEY        CLEAR     22   1  40 W5        30.10R WCI  16
WESTHAMPTON    CLEAR     22   0  38 NW13G29   30.09R WCI  10
MONTAUK POINT    N/A     22   2  42 NW21G33   30.06R WCI   6
$$

NYZ052-065-067-010000-
HUDSON VALLEY

CITY           SKY/WX    TMP DP  RH WIND       PRES   REMARKS
WHITE PLAINS   CLEAR     21   0  39 W10G22    30.08R WCI  10
NEWBURGH       CLEAR     19   3  49 NW14      30.12R WCI   6
MONTGOMERY     CLEAR     19   0  43 NW14G23   30.12R WCI   6
POUGHKEEPSIE   CLEAR     21  -1  38 NW10      30.14R WCI  10
ALBANY         PTCLDY    14  -2  49 NW14      30.18R WCI  -1
$$

NJZ001-105-106-008-010-013-015-019>022-104-010000-
NEW JERSEY

CITY           SKY/WX    TMP DP  RH WIND       PRES   REMARKS
NEWARK/LIBERTY PTCLDY    23   3  42 NW9G22    30.16R WCI  13
TETERBORO      CLEAR     23   1  38 NW12      30.14R WCI  12
CALDWELL       CLEAR     22   1  40 NW14G21   30.16R WCI   9
MORRISTOWN     CLEAR     23   3  42 N7G21     30.16R WCI  15
SOMERVILLE     CLEAR     24   2  38 VRB3      30.17R
SUSSEX         CLEAR     19   2  47 NW8       30.15R WCI   9
ANDOVER          N/A     19   2  47 N5        30.15R WCI  12
TRENTON        CLEAR     25   4  40 W5        30.18R WCI  19
MILLVILLE      CLEAR     26   6  42 W14G20    30.22R WCI  14
ATLANTIC CITY  CLEAR     25   7  46 W14       30.20R WCI  13
WRIGHTSTOWN    CLEAR     24   5  44 W12       30.17R WCI  13
TOMS RIVER     CLEAR     25   5  42 W8        30.18R WCI  16
BELMAR         CLEAR     25   0  33 NW10      30.15R WCI  15
$$

PAZ047>061-062-071-010000-
EASTERN PENNSYLVANIA

CITY           SKY/WX    TMP DP  RH WIND       PRES   REMARKS
PHILADELPHIA   PTCLDY    27   5  39 W13       30.23R WCI  16
ALLENTOWN      CLEAR     24   5  44 W7        30.18R WCI  16
SCRANTON       CLEAR     19   4  51 NW7       30.16R WCI  10
$$

CTZ002-004>006-009-010-012-RIZ004-006-007-MAZ004-011-015-010000-
SOUTHERN NEW ENGLAND
 IN CT

CITY           SKY/WX    TMP DP  RH WIND       PRES   REMARKS
BRADLEY INTL   CLEAR     16  -7  35 NW12      30.09R WCI   3
HARTFORD       CLEAR     17  -6  35 NW9G25    30.11R WCI   6
DANBURY        CLEAR     20  -6  31 NW7       30.09R WCI  11
WTRBRY/OXFORD  CLEAR     18  -8  32 NW15G24   30.05R WCI   3
BRIDGEPORT     CLEAR     21  -2  36 NW13G20   30.10R WCI   9
MERIDEN        CLEAR     18  -6  34 NW6       30.10R WCI  10
NEW HAVEN      CLEAR     22  -6  29 NW15G22   30.09R WCI   9
CHESTER        FAIR      18  -4  38 NW10G18   30.05R WCI   6
GROTON         CLEAR     18  -3  39 NW14G26   30.04R WCI   4
WILLIMANTIC    CLEAR     17  -5  37 NW9G22    30.05R WCI   6

 IN RI

CITY           SKY/WX    TMP DP  RH WIND       PRES   REMARKS
PROVIDENCE     CLEAR     19  -5  34 NW13G23   30.00R WCI   6
BLOCK ISLAND   CLEAR     21   0  39 NW22G31   30.01R WCI   5
WESTERLY       CLEAR     18  -5  36 NW14G23   30.03R WCI   4

 IN MA

CITY           SKY/WX    TMP DP  RH WIND       PRES   REMARKS
BOSTON         CLEAR     18  -5  36 W20G25    29.97R WCI   2
WORCESTER      CLEAR    N/A N/A N/A NW15      29.95R
WESTFIELD      CLEAR     14  -6  40 NW21      30.07R WCI  -4
PROVINCETOWN   CLEAR     21   5  49 NW32G45   29.90R WCI   2
NANTUCKET      CLEAR     23   2  40 NW24G38   29.89R WCI   7
$$

ANZ330-335-338-340-345-350-353-355-010000-
COASTAL MARINE OBSERVATIONS


STATION/POSITION TIME  SKY/WX   TEMP    WIND        PRES    VSBY  WAVE
                                AIR SEA DIR/SP/G                  HT/PER
                 (UTC)          (F)     (DEG/KT/KT) (MB)    (MI)  (FT/S)
NY HARB ENTRANCE 2300            29 40  300/ 23/ 29 1020.1          4/ 5
4S FIRE IS       NOT AVBL
20S FIRE ISLAND  2200               41              1019.3          6/ 6
23SW MTP         2300                                 N/A           7/ 6
HUDSON CANYON    NOT AVBL
EXECUTION ROCKS  2300            26 33  310/ 16/ 21   N/A
WESTERN LI SOUND 2300            26     280/ 16/ 19   N/A           2/ 3
CENTRAL LI SOUND 2200            24 34  310/ 19/ 29   N/A           3/ 5
EASTERN LI SOUND NOT AVBL
ROBBINS REEF     2300            24     310/ 18/ 25 1019.7
$$


>>>>>>>>>>>>>>>>>>>>>>>>>>>> KEY <<<<<<<<<<<<<<<<<<<<<<<<<<<
>                                                          <
>     SKY/WX - SKY CONDITION/PRESENT WEATHER               <
>     TMP    - TEMPERATURE IN FAHRENHEIT                   <
>     DP     - DEWPOINT IN FAHRENHEIT                      <
>     RH     - RELATIVE HUMIDITY IN PERCENT                <
>     WIND   - DIRECTION AND SPEED IN MPH                  <
>     PRES   - MEAN SEA LEVEL PRESSURE IN INCHES OF HG     <
>     WCI    - WIND CHILL INDEX                            <
>     VSB    - VISIBILITY IN MILES                         <
>     HX     - HEAT INDEX                                  <
>     TC     - TEMPERATURE IN CELSIUS                      <
>     VRB    - VARIABLE WIND DIRECTION                     <
>                                                          <
>>>>>>>>>>>>>>>>>>>>>>>>>>>> KEY <<<<<<<<<<<<<<<<<<<<<<<<<<<





USA.gov is the U.S. government's official web portal to all federal, state and local government web resources and services.